Regional Weather Roundup
Issued by NWS Jackson, KY

Home | Current Version | Previous Version | Graphics & Text | Print | Product List | Glossary On
Versions: 1 2 3 4 5 6 7 8 9 10 11 12 13 14 15 16 17 18 19 20 21 22 23 24 25 26 27 28 29 30 31 32 33 34 35 36 37 38 39 40 41 42 43 44 45 46 47
000
ASUS43 KJKL 010410
RWRJKL

EAST KENTUCKY HOURLY WEATHER ROUNDUP
NATIONAL WEATHER SERVICE JACKSON KY
1100 PM EST SAT FEB 28 2015

NOTE: "FAIR" INDICATES FEW OR NO CLOUDS BELOW 12,000 FEET WITH
NO SIGNIFICANT WEATHER AND/OR OBSTRUCTIONS TO VISIBILITY.

* THESE REPORTS ARE NOT UNDER NWS QUALITY CONTROL AND MAY NOT
  REPORT WEATHER SUCH AS PRECIPITATION AND FOG.

KYZ079-080-083-085-087-088-110-112-115-119-120-010500
...EASTERN KENTUCKY...

CITY           SKY/WX    TMP DP  RH WIND       PRES   REMARKS
JACKSON        MOCLDY    36  17  46 E5        30.43F WCI  32
LONDON         MOCLDY    36  21  54 CALM      30.44F
SOMERSET*      CLOUDY    36  23  60 CALM      30.45F
MONTICELLO*    PTCLDY    33  28  82 CALM      30.46F
MIDDLESBORO*   CLEAR     31  28  90 W3        30.46F
HAZARD APT*    MOCLDY    36  21  55 CALM      30.43F
BLACK MTN*       N/A     32  23  69 S7          N/A  WCI  26
PIKEVILLE APT* CLOUDY    36  19  51 SE3       30.44F
BIG SANDY*     MOCLDY    34  20  57 CALM      30.45F
MOREHEAD APT*  CLOUDY    34  14  44 CALM      30.48F
$$

KYZ035-036-041-042-044-050-067-078-099-010500
...CENTRAL KENTUCKY...

CITY           SKY/WX    TMP DP  RH WIND       PRES   REMARKS
MT STERLING*   CLOUDY    34  21  60 CALM      30.48S
FLEMING/MASON* CLOUDY    30  16  55 NE6       30.49S WCI  24
DANVILLE*      CLOUDY    32  27  80 CALM      30.45F
RICHMOND*      CLOUDY    36  19  51 CALM      30.45S
LEXINGTON      CLOUDY    33  21  61 N5        30.46F WCI  29
FRANKFORT        N/A     32  17  54 N3        30.46F
$$

KYZ091>093-OHZ055-061-077-WVZ005-015-034-035-042-010500
...SOUTHERN OHIO/WEST VIRGINIA...

CITY           SKY/WX    TMP DP  RH WIND       PRES   REMARKS
COVINGTON      CLOUDY    27  14  58 N7        30.50S WCI  19
COLUMBUS       CLOUDY    25   7  46 E5        30.53R WCI  19
DAYTON         LGT SNOW  21  16  81 E6        30.53S VSB 3/4 WCI  13
WILMINGTON     CLOUDY    23  11  60 NE6       30.49F WCI  16
HUNTINGTON     CLOUDY    31  15  52 N3        30.48F
CHARLESTON     MOCLDY    28  20  71 CALM      30.47F
PINEVILLE*     MOCLDY    33  27  79 MISG      30.53F
BECKLEY        PTCLDY    30  15  53 SE9G20    30.47F WCI  22
BLUEFIELD      MOCLDY    31  15  52 SE14G22   30.48F WCI  21
$$

VAZ002-007-008-TNZ017-027-036-066-071-010500
...SOUTHWEST VIRGINIA/EAST TENNESSEE...

CITY           SKY/WX    TMP DP  RH WIND       PRES   REMARKS
WISE*          MOCLDY    36  21  55 S7        30.44S WCI  30
JONESVILLE*    PTCLDY    30  27  86 CALM      30.48F
ABINGDON*      CLOUDY    36  23  60 E13       30.49S WCI  27
BRISTOL        CLOUDY    37  25  61 E6        30.49F WCI  32
KNOXVILLE      PTCLDY    38  27  64 W6        30.48R WCI  33
OAK RIDGE      CLOUDY    40  27  59 SW3       30.49R
CROSSVILLE     CLOUDY    41  27  57 S8        30.43F
NASHVILLE      MOCLDY    41  27  57 SE7       30.39S
$$

...KEY TO REMARKS...
VSB - VISIBILITY IN MILES
WCI - WIND CHILL INDEX
HX  - HEAT INDEX

$$



USA.gov is the U.S. government's official web portal to all federal, state and local government web resources and services.